Meteo orario Sydney

Oggi, 20 Gennaio, Mercoledi

Tempo Temperatura Precipitazioni Vento Pressione Umidità
00:00 +19°C° 0.2 mm 6 m/s 765 mm Hg 76%
01:00 +17°C° 0.2 mm 6 m/s 765 mm Hg 78%
02:00 +17°C° 0 mm 6 m/s 765 mm Hg 75%
03:00 +17°C° 0 mm 5 m/s 765 mm Hg 72%
04:00 +18°C° 0 mm 4 m/s 765 mm Hg 71%
05:00 +19°C° 0 mm 4 m/s 765 mm Hg 69%
06:00 +19°C° 0 mm 4 m/s 766 mm Hg 66%
07:00 +19°C° 0 mm 5 m/s 767 mm Hg 64%
08:00 +20°C° 0 mm 5 m/s 767 mm Hg 59%
09:00 +21°C° 0 mm 5 m/s 767 mm Hg 54%
10:00 +22°C° 0 mm 5 m/s 766 mm Hg 50%
11:00 +22°C° 0 mm 5 m/s 766 mm Hg 50%
12:00 +22°C° 0 mm 4 m/s 766 mm Hg 50%
13:00 +22°C° 0 mm 4 m/s 766 mm Hg 50%
14:00 +22°C° 0 mm 4 m/s 765 mm Hg 49%
15:00 +22°C° 0 mm 4 m/s 765 mm Hg 48%
16:00 +23°C° 0 mm 4 m/s 764 mm Hg 47%
17:00 +21°C° 0 mm 3 m/s 764 mm Hg 51%
18:00 +20°C° 0 mm 3 m/s 765 mm Hg 55%
19:00 +19°C° 0 mm 2 m/s 765 mm Hg 58%
20:00 +18°C° 0 mm 2 m/s 765 mm Hg 62%
21:00 +18°C° 0 mm 2 m/s 765 mm Hg 66%
22:00 +17°C° 0 mm 2 m/s 765 mm Hg 70%
23:00 +16°C° 0 mm 1 m/s 765 mm Hg 73%

Domani, 21 Gennaio, Giovedi

Tempo Temperatura Precipitazioni Vento Pressione Umidità
00:00 +16°C° 0 mm 1 m/s 764 mm Hg 75%
01:00 +15°C° 0 mm 1 m/s 764 mm Hg 78%
02:00 +15°C° 0 mm 1 m/s 764 mm Hg 79%
03:00 +15°C° 0 mm 1 m/s 764 mm Hg 80%
04:00 +14°C° 0 mm 1 m/s 763 mm Hg 81%
05:00 +16°C° 0 mm 1 m/s 764 mm Hg 76%
06:00 +18°C° 0 mm 1 m/s 764 mm Hg 70%
07:00 +19°C° 0 mm 1 m/s 764 mm Hg 65%
08:00 +20°C° 0 mm 2 m/s 763 mm Hg 56%
09:00 +24°C° 0 mm 2 m/s 763 mm Hg 48%
10:00 +26°C° 0 mm 3 m/s 763 mm Hg 39%
11:00 +28°C° 0 mm 4 m/s 762 mm Hg 37%
12:00 +29°C° 0 mm 5 m/s 761 mm Hg 34%
13:00 +30°C° 0 mm 6 m/s 760 mm Hg 32%
14:00 +29°C° 0 mm 7 m/s 760 mm Hg 36%
15:00 +29°C° 0 mm 7 m/s 759 mm Hg 40%
16:00 +28°C° 0 mm 7 m/s 758 mm Hg 45%
17:00 +26°C° 0 mm 7 m/s 758 mm Hg 51%
18:00 +24°C° 0 mm 7 m/s 758 mm Hg 58%
19:00 +22°C° 0 mm 7 m/s 758 mm Hg 65%
20:00 +22°C° 0 mm 6 m/s 759 mm Hg 68%
21:00 +21°C° 0 mm 6 m/s 759 mm Hg 71%
22:00 +21°C° 0 mm 5 m/s 759 mm Hg 74%
23:00 +20°C° 0 mm 5 m/s 758 mm Hg 74%

Dopodomani, 22 Gennaio, Venerdi

Tempo Temperatura Precipitazioni Vento Pressione Umidità
00:00 +20°C° 0 mm 5 m/s 758 mm Hg 75%
01:00 +20°C° 0 mm 5 m/s 758 mm Hg 75%
02:00 +20°C° 0 mm 4 m/s 757 mm Hg 76%
03:00 +19°C° 0 mm 4 m/s 757 mm Hg 77%
04:00 +19°C° 0 mm 3 m/s 757 mm Hg 78%
05:00 +20°C° 0.1 mm 2 m/s 757 mm Hg 76%
06:00 +21°C° 0.1 mm 2 m/s 757 mm Hg 73%
07:00 +23°C° 0.1 mm 2 m/s 757 mm Hg 71%
08:00 +26°C° 0 mm 2 m/s 757 mm Hg 60%
09:00 +29°C° 0 mm 3 m/s 757 mm Hg 48%
10:00 +33°C° 0 mm 3 m/s 757 mm Hg 37%
11:00 +35°C° 0 mm 4 m/s 756 mm Hg 33%
12:00 +37°C° 0 mm 5 m/s 755 mm Hg 28%
13:00 +40°C° 0 mm 5 m/s 755 mm Hg 24%
14:00 +36°C° 0.5 mm 6 m/s 754 mm Hg 35%
15:00 +33°C° 0.5 mm 7 m/s 754 mm Hg 46%
16:00 +29°C° 0.5 mm 7 m/s 754 mm Hg 57%
17:00 +28°C° 0.1 mm 7 m/s 754 mm Hg 59%
18:00 +27°C° 0.1 mm 6 m/s 754 mm Hg 61%
19:00 +27°C° 0.1 mm 5 m/s 755 mm Hg 63%
20:00 +26°C° 0 mm 5 m/s 755 mm Hg 63%
21:00 +26°C° 0 mm 5 m/s 756 mm Hg 63%
22:00 +26°C° 0 mm 5 m/s 756 mm Hg 62%
23:00 +25°C° 0 mm 4 m/s 756 mm Hg 67%

23 Gennaio, Sabato

Tempo Temperatura Precipitazioni Vento Pressione Umidità
00:00 +24°C° 0 mm 3 m/s 756 mm Hg 71%
01:00 +23°C° 0 mm 2 m/s 756 mm Hg 75%
02:00 +22°C° 0 mm 3 m/s 756 mm Hg 78%
03:00 +21°C° 0 mm 3 m/s 756 mm Hg 82%
04:00 +21°C° 0 mm 4 m/s 757 mm Hg 85%
05:00 +22°C° 0 mm 3 m/s 757 mm Hg 80%
06:00 +24°C° 0 mm 3 m/s 758 mm Hg 75%
07:00 +25°C° 0 mm 2 m/s 758 mm Hg 70%
08:00 +28°C° 0 mm 2 m/s 758 mm Hg 61%
09:00 +30°C° 0 mm 2 m/s 758 mm Hg 52%
10:00 +32°C° 0 mm 2 m/s 758 mm Hg 43%
11:00 +35°C° 0 mm 3 m/s 758 mm Hg 40%
12:00 +36°C° 0 mm 4 m/s 757 mm Hg 36%
13:00 +37°C° 0 mm 4 m/s 757 mm Hg 33%
14:00 +36°C° 0 mm 5 m/s 757 mm Hg 38%
15:00 +35°C° 0 mm 5 m/s 757 mm Hg 42%
16:00 +34°C° 0 mm 6 m/s 757 mm Hg 46%
17:00 +33°C° 0 mm 6 m/s 757 mm Hg 49%
18:00 +32°C° 0 mm 6 m/s 757 mm Hg 51%
19:00 +29°C° 0 mm 7 m/s 757 mm Hg 53%
20:00 +29°C° 0 mm 6 m/s 758 mm Hg 55%
21:00 +28°C° 0 mm 5 m/s 758 mm Hg 57%
22:00 +27°C° 0 mm 5 m/s 758 mm Hg 59%
23:00 +27°C° 0 mm 4 m/s 758 mm Hg 61%

24 Gennaio, Domenica

Tempo Temperatura Precipitazioni Vento Pressione Umidità
00:00 +26°C° 0 mm 3 m/s 758 mm Hg 63%
01:00 +25°C° 0 mm 2 m/s 758 mm Hg 66%
02:00 +25°C° 0 mm 2 m/s 758 mm Hg 70%
03:00 +24°C° 0 mm 2 m/s 758 mm Hg 74%
04:00 +24°C° 0 mm 2 m/s 758 mm Hg 78%
05:00 +25°C° 0 mm 2 m/s 758 mm Hg 74%
06:00 +26°C° 0 mm 1 m/s 758 mm Hg 71%
07:00 +27°C° 0 mm 1 m/s 759 mm Hg 67%
08:00 +30°C° 0 mm 2 m/s 758 mm Hg 56%
09:00 +34°C° 0 mm 3 m/s 758 mm Hg 44%
10:00 +37°C° 0 mm 3 m/s 758 mm Hg 33%
11:00 +38°C° 0 mm 4 m/s 757 mm Hg 29%
12:00 +41°C° 0 mm 5 m/s 757 mm Hg 26%
13:00 +43°C° 0 mm 7 m/s 756 mm Hg 22%
14:00 +41°C° 0 mm 7 m/s 756 mm Hg 24%
15:00 +39°C° 0 mm 7 m/s 756 mm Hg 26%
16:00 +38°C° 0 mm 8 m/s 756 mm Hg 27%
17:00 +35°C° 0 mm 7 m/s 756 mm Hg 32%
18:00 +32°C° 0 mm 6 m/s 756 mm Hg 37%
19:00 +29°C° 0 mm 6 m/s 756 mm Hg 42%
20:00 +28°C° 0 mm 6 m/s 757 mm Hg 48%
21:00 +27°C° 0 mm 6 m/s 757 mm Hg 53%
22:00 +27°C° 0 mm 6 m/s 757 mm Hg 59%
23:00 +26°C° 0 mm 6 m/s 757 mm Hg 65%

25 Gennaio, Lunedi

Tempo Temperatura Precipitazioni Vento Pressione Umidità
00:00 +24°C° 0 mm 6 m/s 756 mm Hg 71%
01:00 +23°C° 0 mm 7 m/s 756 mm Hg 77%
02:00 +23°C° 0 mm 6 m/s 756 mm Hg 79%
03:00 +22°C° 0 mm 5 m/s 755 mm Hg 81%
04:00 +22°C° 0 mm 4 m/s 755 mm Hg 83%
05:00 +23°C° 0 mm 4 m/s 756 mm Hg 78%
06:00 +25°C° 0 mm 3 m/s 756 mm Hg 72%
07:00 +26°C° 0 mm 3 m/s 756 mm Hg 67%
08:00 +29°C° 0 mm 3 m/s 756 mm Hg 55%
09:00 +33°C° 0 mm 3 m/s 756 mm Hg 43%
10:00 +36°C° 0 mm 3 m/s 755 mm Hg 31%
11:00 +37°C° 0 mm 4 m/s 755 mm Hg 30%
12:00 +39°C° 0 mm 5 m/s 754 mm Hg 28%
13:00 +40°C° 0 mm 5 m/s 754 mm Hg 27%
14:00 +39°C° 0 mm 6 m/s 753 mm Hg 29%
15:00 +38°C° 0 mm 6 m/s 753 mm Hg 32%
16:00 +36°C° 0 mm 7 m/s 753 mm Hg 34%
17:00 +34°C° 0 mm 6 m/s 753 mm Hg 42%
18:00 +32°C° 0 mm 5 m/s 753 mm Hg 49%
19:00 +29°C° 0 mm 4 m/s 753 mm Hg 56%
20:00 +28°C° 0 mm 4 m/s 753 mm Hg 63%
21:00 +27°C° 0 mm 5 m/s 754 mm Hg 69%
22:00 +25°C° 0 mm 5 m/s 754 mm Hg 75%
23:00 +25°C° 0 mm 4 m/s 753 mm Hg 76%
Mostrare altro